Lihue, HI

10:27 PM HST on November 20, 2017 (GMT -1000)
Lihue

Weather History for PHLI - May, 2012

Change the Weather History Date:

Tuesday, May 29, 2012

  Actual Average Record
Temperature  
Mean Temperature 78 °F 77 °F  
Max Temperature 82 °F 82 °F 86 °F (2013)
Min Temperature 73 °F 72 °F 65 °F (1983)
Degree Days  
Heating Degree Days 0 0  
Month to date heating degree days 0 0  
Since 1 July heating degree days 0 0  
Cooling Degree Days 13 12  
Month to date cooling degree days 328 312  
Year to date cooling degree days 1382 1216  
Growing Degree Days 27 (Base 50)    
Moisture  
Dew Point 64 °F    
Average Humidity 67    
Maximum Humidity 79    
Minimum Humidity 55    
Precipitation  
Precipitation 0.01 in 0.06 in 0.47 in (1986)
Month to date precipitation 0.95 1.98  
Year to date precipitation 32.70 15.75  
Snow  
Snow 0.00 in - - ()
Month to date snowfall 0.0  
Since 1 July snowfall 0.0  
Snow Depth 0.00 in    
Sea Level Pressure  
Sea Level Pressure 30.17 in    
Wind  
Wind Speed 18 mph (ENE)    
Max Wind Speed 22 mph    
Max Gust Speed 28 mph    
Visibility 10 miles    
Events      
T = Trace of Precipitation, MM = Missing Value Source: NWS Daily Summary

Daily Weather History Graph

Daily Weather History Graph

Search for Another Location

Airport or City:

Trip Planner

Search our weather history database for the weather conditions in past years. The results will help you decide how hot, cold, wet, or windy it might be!

Date:

Astronomy

May. 29, 2012 Rise Set
Actual Time 5:53 AM HST 7:16 PM HST
Civil Twilight 5:29 AM HST 7:40 PM HST
Nautical Twilight 4:59 AM HST 8:10 PM HST
Astronomical Twilight 4:29 AM HST 8:40 PM HST
Moon 1:38 PM HST (5/29) 1:10 AM HST (5/29)
Length of Visible Light 14h 11m
Length of Day
13h 22m
First Quarter, 62% of the Moon is Illuminated
May 29
First Quarter
Jun 4
Full
Jun 11
Last Quarter
Jun 19
New
Jun 26
First Quarter

Hourly Weather History & Observations

Time (HST) Temp. Heat Index Dew Point Humidity Pressure Visibility Wind Dir Wind Speed Gust Speed Precip Events Conditions
12:53 AM 73.9 °F - 64.9 °F 73% 30.17 in 10.0 mi ENE 19.6 mph - 0.00 in   Overcast
1:53 AM 73.9 °F - 63.0 °F 68% 30.16 in 10.0 mi ENE 18.4 mph - N/A   Mostly Cloudy
2:53 AM 73.0 °F - 63.0 °F 71% 30.15 in 10.0 mi NE 18.4 mph - 0.01 in   Partly Cloudy
3:53 AM 73.9 °F - 63.0 °F 68% 30.14 in 10.0 mi ENE 15.0 mph - N/A   Mostly Cloudy
4:53 AM 73.9 °F - 63.0 °F 68% 30.14 in 10.0 mi NE 18.4 mph - N/A   Overcast
5:53 AM 73.9 °F - 63.0 °F 68% 30.15 in 10.0 mi ENE 17.3 mph - N/A   Mostly Cloudy
6:53 AM 75.0 °F - 63.0 °F 66% 30.17 in 10.0 mi ENE 17.3 mph 25.3 mph N/A   Mostly Cloudy
7:53 AM 75.9 °F - 63.0 °F 64% 30.18 in 10.0 mi ENE 19.6 mph - N/A   Mostly Cloudy
8:53 AM 78.1 °F - 63.0 °F 60% 30.19 in 10.0 mi ENE 18.4 mph - N/A   Clear
9:53 AM 79.0 °F - 64.0 °F 60% 30.19 in 10.0 mi NE 16.1 mph - N/A   Mostly Cloudy
10:53 AM 81.0 °F 82.7 °F 64.9 °F 58% 30.19 in 10.0 mi ENE 17.3 mph - N/A   Scattered Clouds
11:53 AM 82.0 °F 83.8 °F 64.9 °F 56% 30.18 in 10.0 mi ENE 21.9 mph - N/A   Clear
12:53 PM 81.0 °F 82.7 °F 64.9 °F 58% 30.16 in 10.0 mi ENE 18.4 mph - N/A   Partly Cloudy
1:53 PM 80.1 °F 81.7 °F 64.0 °F 58% 30.15 in 10.0 mi ENE 18.4 mph - N/A   Overcast
2:53 PM 79.0 °F - 66.0 °F 64% 30.14 in 10.0 mi NE 18.4 mph - N/A   Partly Cloudy
3:53 PM 79.0 °F - 64.9 °F 62% 30.14 in 10.0 mi ENE 18.4 mph - N/A   Overcast
4:53 PM 77.0 °F - 66.0 °F 69% 30.13 in 10.0 mi ENE 15.0 mph - N/A   Mostly Cloudy
5:53 PM 75.9 °F - 66.0 °F 71% 30.14 in 10.0 mi NE 17.3 mph - N/A   Partly Cloudy
6:53 PM 75.0 °F - 64.0 °F 69% 30.15 in 10.0 mi ENE 17.3 mph - 0.00 in   Partly Cloudy
7:53 PM 75.0 °F - 64.9 °F 71% 30.17 in 10.0 mi ENE 19.6 mph - 0.01 in   Overcast
8:24 PM 73.4 °F - 66.2 °F 78% 30.18 in 10.0 mi East 15.0 mph - N/A   Overcast
8:31 PM 73.4 °F - 66.2 °F 78% 30.19 in 10.0 mi East 13.8 mph - N/A   Overcast
8:53 PM 73.9 °F - 66.9 °F 79% 30.19 in 10.0 mi ENE 12.7 mph - N/A   Overcast
9:53 PM 75.0 °F - 64.9 °F 71% 30.19 in 10.0 mi NE 13.8 mph - 0.00 in   Mostly Cloudy
10:53 PM 75.0 °F - 64.9 °F 71% 30.20 in 10.0 mi ENE 16.1 mph - N/A   Overcast
11:53 PM 73.9 °F - 64.9 °F 73% 30.19 in 10.0 mi NE 15.0 mph - N/A   Mostly Cloudy